Regional Weather Roundup
Issued by NWS

Home | Current Version | Previous Version | Graphics & Text | Print | Product List | Glossary On
Versions: 1 2 3 4 5 6 7 8 9 10 11 12 13 14 15 16 17 18 19 20 21 22 23 24 25 26 27 28 29 30 31 32 33 34 35 36 37 38 39 40 41 42 43 44 45 46 47 48 49 50
000
ASUS44 KMEG 212100
RWRTN
TENNESSEE HOURLY STATE WEATHER ROUNDUP
NATIONAL WEATHER SERVICE MEMPHIS TN
400 PM CDT TUE OCT 21 2014

TNZ002-004-019-021-049-052-054-088>092-212200-
WEST TENNESSEE

CITY           SKY/WX    TMP DP  RH WIND       PRES   REMARKS
MEMPHIS INTL   SUNNY     76  46  34 CALM      30.05S
NWS MEMPHIS      N/A     76 N/A N/A MISG        N/A
JACKSON        SUNNY     75  45  34 N7        30.04F
DYERSBURG      SUNNY     73  43  33 N9G20     30.06S
UNION CITY     SUNNY     72  43  35 N8        30.04S
PARIS          SUNNY     70  45  40 NW8       30.05S
LEXINGTON      SUNNY     72  45  37 N10       30.03S
SAVANNAH       SUNNY     73  46  38 NW7       30.04S
$$

TNZ008-025-027-028-033-062-065-066-212200-
NORTH MIDDLE TENNESSEE

CITY           SKY/WX    TMP DP  RH WIND       PRES   REMARKS
NASHVILLE      MOSUNNY   72  45  37 N10       30.03S
CLARKSVILLE    SUNNY     70  45  40 N13       30.04S
COOKEVILLE     PTSUNNY   68  48  49 N6        30.02S
CROSSVILLE     MOSUNNY   63  42  46 NW12      30.03S
$$

TNZ061-075-076-078-094-096-097-212200-
SOUTH MIDDLE TENNESSEE

CITY           SKY/WX    TMP DP  RH WIND       PRES   REMARKS
FAYETTEVILLE   SUNNY     70  45  40 NW8       30.02S
WINCHESTER     SUNNY     70  46  43 N10       30.02S
MCMINNVILLE    SUNNY     68  48  49 CALM      30.02S
SHELBYVILLE    SUNNY     72  48  43 NW9       30.03S
$$

TNZ017-018-042-046-047-212200-
NORTHEAST TENNESSEE

CITY           SKY/WX    TMP DP  RH WIND       PRES   REMARKS
TRI CITIES     PTSUNNY   60  40  47 NW13      29.98R
ELIZABETHTON   CLOUDY    57  39  51 W7        29.98R
$$

TNZ012-013-036-069-073-074-212200-
CENTRAL EAST TENNESSEE

CITY           SKY/WX    TMP DP  RH WIND       PRES   REMARKS
KNOXVILLE      MOSUNNY   67  43  41 N5        29.98S
OAK RIDGE      SUNNY     69  41  36 W7        30.01R
GATLINBURG     MOCLDY    66  39  37 NW12      29.98S
MORRISTOWN     PTCLDY    63  43  48 N13       30.00S
$$

TNZ083-085-099-212200-
SOUTHEAST TENNESSEE

CITY           SKY/WX    TMP DP  RH WIND       PRES   REMARKS
CHATTANOOGA    MOSUNNY   72  44  36 N13       29.99S
$$

SKY/WX REPORTED AS FAIR MEANS FEW OR NO CLOUDS BELOW
12 THOUSAND FEET.




USA.gov is the U.S. government's official web portal to all federal, state and local government web resources and services.